Regional Weather Roundup
Issued by NWS Cleveland, OH

Home | Current Version | Previous Version | Graphics & Text | Print | Product List | Glossary On
Versions: 1 2 3 4 5 6 7 8 9 10 11 12 13 14 15 16 17 18 19 20 21 22 23 24 25 26 27 28 29 30 31 32 33 34 35 36 37 38 39 40 41 42 43 44 45 46 47 48 49 50
000
ASUS41 KCLE 271810
RWRCLE
OHIO REGIONAL WEATHER ROUNDUP
NATIONAL WEATHER SERVICE CLEVELAND, OH
200 PM EDT MON MAR 27 2017

NOTE: "FAIR" INDICATES FEW OR NO CLOUDS BELOW 12,000 FEET WITH NO
SIGNIFICANT WEATHER AND/OR OBSTRUCTIONS TO VISIBILITY.

OHZ001>008-015>018-024>027-034-035-043-044-271900-
   NORTHWEST OHIO

CITY           SKY/WX    TMP DP  RH WIND       PRES   REMARKS
DEFIANCE       CLOUDY    57  48  72 VRB5      29.94F
FINDLAY        CLOUDY    59  48  67 W8        29.94F
TOLEDO EXPRESS CLOUDY    58  49  72 W7        29.93F
TOLEDO EXEC    CLOUDY    58  50  75 SW7       29.94F
LIMA           PTSUNNY   59  50  72 SW6       29.95F
$$

OHZ009>014-019>023-028>033-038-089-271900-
   NORTHEAST OHIO

CITY           SKY/WX    TMP DP  RH WIND       PRES   REMARKS
CLE-HOPKINS    CLOUDY    60  49  66 SW15      29.97F
CLE-LAKEFRONT  FOG       49  48  97 W5        29.95F VSB 1
CUY CO. ARPT   NOT AVBL
LORAIN-ELYRIA  CLOUDY    58  49  72 W10       29.95F
ASHTABULA      CLOUDY    59  51  75 W12       29.96F
AKRON-CANTON   CLOUDY    60  47  61 SW14      29.96F
WOOSTER        CLOUDY    59  49  69 W14       29.97F
MANSFIELD      CLOUDY    57  49  74 SW10      29.96F
YOUNGSTOWN     CLOUDY    61  49  64 W9        29.96F
$$

OHZ042-051>053-060>062-070>072-077>081-271900-
  SOUTHWEST OHIO

CITY           SKY/WX    TMP DP  RH WIND       PRES   REMARKS
CINC-COVINGTON CLOUDY    62  52  69 SE3       29.95F
CINC-LUNKEN    LGT RAIN  63  53  70 CALM      29.96F
HAMILTON       CLOUDY    64  50  60 S8        29.97F
DAYTON         CLOUDY    65  49  56 SW9       29.97F
WRIGHT-PAT AFB CLOUDY    65  50  57 SW5       29.96F
DAYTON GENERAL MOSUNNY   63  50  62 S8        29.96F
WILMINGTON     MOSUNNY   61  51  70 S7        29.97F
$$

OHZ036-037-039>041-045>050-054>059-063>069-073>076-082>088-271900-
  CENTRAL AND SOUTHEAST OHIO

CITY           SKY/WX    TMP DP  RH WIND       PRES   REMARKS
COLUMBUS       CLOUDY    64  49  57 CALM      29.96F
OSU AIRPORT    MOSUNNY   63  51  65 VRB6G16   29.96F
BOLTON FIELD   MOSUNNY   63  52  67 SW12      29.98F
RICKENBACK AFB CLOUDY    62  51  66 SW8       29.97F
NEWARK         MOSUNNY   63  50  62 W7        29.97F
MARION         CLOUDY    60  49  66 W6        29.97F
LANCASTER      MOSUNNY   65  51  60 SW10      29.99F
ZANESVILLE     MOSUNNY   66  50  56 NW6       29.97F
NEW PHILLY     NOT AVBL
$$



USA.gov is the U.S. government's official web portal to all federal, state and local government web resources and services.